Main page
METAR-TAF:

METAR-TAF

Airports :

Grove Municipal Airport

Grove, Oklahoma, United States

latitude: 36-36-19N, longitude: 094-44-19W, elevation: 833 ft

Current weather observation

The report was made 31 minutes ago, at 05:15 UTC
Calm wind
Temperature 72°F
Humidity 100%
Pressure 30.20 in. Hg
Visibility: 0.75 miles
Broken clouds at a height of 5000 ft
Broken clouds at a height of 6000 ft
mist

METAR: KGMJ 200515Z AUTO 00000KT 3/4SM BR BKN050 BKN060 22/22 A3020 RMK AO2 TSNO

Time: 00:46 (05:46 UTC)


TAF: missing

Weather observations and forecasts of more than 4000 airports (METAR and TAF reports).

The available stations are represented by yellow and red dots on the map.

Hover mouse over dot to see the name of the station.

Then click to see weather observations and forecasts.

To change the map : click on the green buttons with a black cross to zoom in, on the green button with a dash to zoom out, or on the green arrows for adjacent maps.


METAR-TAF: